sat.trackr.live / text

‹ back to catalog

STARLINK-37369

NORAD 69529 · 2026-133X

PAYLOAD ACTIVE UNKNOWN

§ Identity

Operator
Country
US
Launch date
2026-06-12
Launch site
AFETR
Launch vehicle
Mass (kg)
RCS (m²)

Purposes: comms

External: N2YO · Heavens-Above · Gunter

§ Orbital elements

Epoch: 2026-09-19T22:47:55.019904Z

Period
93.85 min
Inclination
53.1552°
Eccentricity
0.0001540
Mean motion
15.34398387 rev/d
Perigee alt
461.7 km
Apogee alt
463.8 km
Semi-major
6,840.8 km
B*
6.0502e-4
RAAN
231.9899°
Arg perigee
89.8272°
Mean anomaly
270.2907°
Rev number
1,668

§ Raw data

STARLINK-373691 69529U 26133X   26262.94994236  .00020119  00000+0  60502-3 0  99982 69529  53.1552 231.9899 0001540  89.8272 270.2907 15.34398387 16680

JSON: /api/v1/satellites/69529 · /tle

For live sub-satellite position, see the globe view (requires WebGL).

§ Visibility from observer

Set your observer location to see the next 7 days of passes ≥ 10°. The values pass through the URL so the page stays shareable.

No JS? Fill the form by hand. The geolocation button needs JavaScript.